Regional Weather Roundup
Issued by NWS

Home | Current Version | Previous Version | Graphics & Text | Print | Product List | Glossary On
Versions: 1 2 3 4 5 6 7 8 9 10 11 12 13 14 15 16 17 18 19 20 21 22 23 24 25 26 27 28 29 30 31 32 33 34 35 36 37 38 39 40 41 42 43 44 45 46 47 48 49 50
000
ASUS44 KMEG 262210
RWRTN
TENNESSEE HOURLY STATE WEATHER ROUNDUP
NATIONAL WEATHER SERVICE MEMPHIS TN
500 PM CDT TUE MAY 26 2015

TNZ002-004-019-021-049-052-054-088>092-262300-
WEST TENNESSEE

CITY           SKY/WX    TMP DP  RH WIND       PRES   REMARKS
MEMPHIS INTL   MOSUNNY   81  63  54 W9G18     30.03F
NWS MEMPHIS      N/A     81 N/A N/A MISG        N/A
JACKSON        MOSUNNY   82  63  52 SW14      30.02S
DYERSBURG      MOSUNNY   77  55  47 W14       30.03R
PARIS          PTSUNNY   77  63  61 W12       30.02R
LEXINGTON      MOSUNNY   81  63  54 SW12      30.02R
$$

TNZ008-025-027-028-033-062-065-066-262300-
NORTH MIDDLE TENNESSEE

CITY           SKY/WX    TMP DP  RH WIND       PRES   REMARKS
NASHVILLE      PTSUNNY   77  71  82 S6        30.05F
CLARKSVILLE    PTSUNNY   79  63  57 SW15      30.01R
SMYRNA         CLOUDY    79  70  74 SW8G16    30.06R
COOKEVILLE     PTSUNNY   72  70  94 W17G91    30.08R
CROSSVILLE     RAIN      70  66  87 S10G21    30.13S FOG
$$

TNZ061-075-076-078-094-096-097-262300-
SOUTH MIDDLE TENNESSEE

CITY           SKY/WX    TMP DP  RH WIND       PRES   REMARKS
FAYETTEVILLE   MOSUNNY  N/A N/A N/A MISG      30.10R
TULLAHOMA      MOSUNNY   75  66  73 SW7       30.10R
WINCHESTER     SUNNY     79  66  65 SW7       30.10S
MCMINNVILLE    SUNNY     79  70  73 SW10      30.09R
COLUMBIA       MOSUNNY   79  70  73 SW10      30.05R
SHELBYVILLE    SUNNY     79  72  78 SW13      30.08R
$$

TNZ017-018-042-046-047-262300-
NORTHEAST TENNESSEE

CITY           SKY/WX    TMP DP  RH WIND       PRES   REMARKS
TRI CITIES     PTSUNNY   85  59  41 S15G23    30.14S
ELIZABETHTON   CLEAR     82  61  47 SW7       30.16R
$$

TNZ012-013-036-069-073-074-262300-
CENTRAL EAST TENNESSEE

CITY           SKY/WX    TMP DP  RH WIND       PRES   REMARKS
KNOXVILLE      CLOUDY    82  62  50 S16       30.09F
OAK RIDGE      CLOUDY    72  69  90 VRB5      30.12F
GATLINBURG     CLEAR     82  61  47 S8        30.11R
MORRISTOWN     CLEAR     82  64  54 S9        30.12F
$$

TNZ083-085-099-262300-
SOUTHEAST TENNESSEE

CITY           SKY/WX    TMP DP  RH WIND       PRES   REMARKS
CHATTANOOGA    CLOUDY    71  68  90 S7        30.12R
$$

SKY/WX REPORTED AS FAIR MEANS FEW OR NO CLOUDS BELOW
12 THOUSAND FEET.




USA.gov is the U.S. government's official web portal to all federal, state and local government web resources and services.